,,,PA_Meas_PMT16A,,PR_Meas_QMR101_102,,RH_Meas_QMH101,,SR_Meas_QMS101,,TA_Meas_QMH101,,GenWind,,GenWind,
date,time,status,PA,status,PR,status,RH,status,SR,status,TA,status,DirAvg,status,SpdAvg,
2010-09-26, 00:00:04,VALID,1002.55,VALID,0,VALID,65.6847,VALID,353.68,VALID,30.5449,VALID,91,VALID,2.15273,
2010-09-26, 00:01:04,VALID,1002.52,VALID,0,VALID,66.1119,VALID,347.747,VALID,30.4279,VALID,103,VALID,2.16563,
2010-09-26, 00:02:04,VALID,1002.55,VALID,0,VALID,66.9205,VALID,104.083,VALID,30.3694,VALID,30,VALID,0.815234,
2010-09-26, 00:03:04,VALID,1002.58,VALID,0,VALID,67.2257,VALID,111.424,VALID,30.3499,VALID,80,VALID,1.36406,
2010-09-26, 00:04:04,VALID,1002.58,VALID,0,VALID,68.4158,VALID,121.078,VALID,30.2523,VALID,86,VALID,1.50703,
2010-09-26, 00:05:04,VALID,1002.62,VALID,0,VALID,68.721,VALID,131.034,VALID,30.1158,VALID,64,VALID,0.969922,
2010-09-26, 00:06:04,VALID,1002.61,VALID,0,VALID,68.8964,VALID,131.838,VALID,30.0573,VALID,74,VALID,1.16016,
2010-09-26, 00:07:04,VALID,1002.55,VALID,0,VALID,68.1106,VALID,124.497,VALID,30.0183,VALID,73,VALID,1.88984,
2010-09-26, 00:08:04,VALID,1002.52,VALID,0,VALID,69.6135,VALID,124.799,VALID,29.9403,VALID,8,VALID,1.16211,
2010-09-26, 00:09:04,VALID,1002.49,VALID,0,VALID,69.1253,VALID,136.062,VALID,29.8818,VALID,74,VALID,1.5332,
2010-09-26, 00:10:04,VALID,1002.48,VALID,0,VALID,70.4069,VALID,153.761,VALID,29.8405,VALID,14,VALID,0.685547,
2010-09-26, 00:11:04,VALID,1002.45,VALID,0,VALID,69.9263,VALID,159.191,VALID,29.9013,VALID,22,VALID,1.6125,
2010-09-26, 00:12:04,VALID,1002.43,VALID,0,VALID,70.1781,VALID,275.04,VALID,29.821,VALID,46,VALID,0.528906,
2010-09-26, 00:13:04,VALID,1002.42,VALID,0,VALID,71.4368,VALID,275.341,VALID,29.899,VALID,34,VALID,0.725,
2010-09-26, 00:14:04,VALID,1002.44,VALID,0,VALID,70.117,VALID,266.492,VALID,29.9575,VALID,15,VALID,1.49414,
2010-09-26, 00:15:04,VALID,1002.44,VALID,0,VALID,70.2696,VALID,220.233,VALID,29.9208,VALID,8,VALID,0.767187,
2010-09-26, 00:16:04,VALID,1002.44,VALID,0,VALID,72.3218,VALID,213.294,VALID,29.938,VALID,22,VALID,0.549219,
2010-09-26, 00:17:04,VALID,1002.42,VALID,0,VALID,70.5443,VALID,214.4,VALID,30.016,VALID,355,VALID,0.859375,
2010-09-26, 00:18:04,VALID,1002.45,VALID,0,VALID,70.3459,VALID,203.439,VALID,30.1135,VALID,87,VALID,0.650781,
2010-09-26, 00:19:04,VALID,1002.45,VALID,0,VALID,70.4451,VALID,194.388,VALID,30.172,VALID,63,VALID,0.792578,
2010-09-26, 00:20:04,VALID,1002.45,VALID,0,VALID,71.1622,VALID,187.55,VALID,30.1548,VALID,103,VALID,1.82734,
2010-09-26, 00:21:04,VALID,1002.41,VALID,0,VALID,70.4298,VALID,161.001,VALID,30.0963,VALID,79,VALID,1.24375,
2010-09-26, 00:22:04,VALID,1002.45,VALID,0,VALID,70.59,VALID,160.096,VALID,30.0378,VALID,89,VALID,1.21602,
2010-09-26, 00:23:04,VALID,1002.43,VALID,0,VALID,70.3688,VALID,187.952,VALID,29.9988,VALID,94,VALID,2.08594,
2010-09-26, 00:24:04,VALID,1002.45,VALID,0,VALID,71.3529,VALID,184.432,VALID,29.9598,VALID,35,VALID,0.875391,
2010-09-26, 00:25:04,VALID,1002.45,VALID,0,VALID,70.8113,VALID,172.566,VALID,29.9793,VALID,37,VALID,1.21367,
2010-09-26, 00:26:04,VALID,1002.44,VALID,0,VALID,70.9333,VALID,158.99,VALID,29.9403,VALID,15,VALID,1.41602,
2010-09-26, 00:27:04,VALID,1002.44,VALID,0,VALID,70.796,VALID,149.235,VALID,29.8428,VALID,33,VALID,1.22187,
2010-09-26, 00:28:04,VALID,1002.45,VALID,0,VALID,70.2696,VALID,124.597,VALID,29.8233,VALID,21,VALID,2.02813,
2010-09-26, 00:29:04,VALID,1002.52,VALID,0,VALID,70.1704,VALID,135.157,VALID,29.6868,VALID,69,VALID,2.52773,
2010-09-26, 00:30:04,VALID,1002.48,VALID,0,VALID,70.3993,VALID,145.816,VALID,29.6478,VALID,33,VALID,1.63828,
2010-09-26, 00:31:04,VALID,1002.5,VALID,0,VALID,70.468,VALID,140.386,VALID,29.6065,VALID,32,VALID,1.49219,
2010-09-26, 00:32:04,VALID,1002.46,VALID,0,VALID,70.6434,VALID,136.363,VALID,29.5675,VALID,16,VALID,0.681641,
2010-09-26, 00:33:04,VALID,1002.52,VALID,0,VALID,72.215,VALID,131.134,VALID,29.5675,VALID,38,VALID,0.223047,
2010-09-26, 00:34:04,VALID,1002.55,VALID,0,VALID,71.597,VALID,110.418,VALID,29.6478,VALID,144,VALID,0.598828,
2010-09-26, 00:35:04,VALID,1002.57,VALID,0,VALID,72.4591,VALID,105.088,VALID,29.6868,VALID,29,VALID,0.964063,
2010-09-26, 00:36:04,VALID,1002.55,VALID,0,VALID,71.2537,VALID,116.854,VALID,29.7063,VALID,77,VALID,1.29609,
2010-09-26, 00:37:04,VALID,1002.56,VALID,0,VALID,72.2379,VALID,114.038,VALID,29.5848,VALID,99,VALID,1.02539,
2010-09-26, 00:38:04,VALID,1002.56,VALID,0,VALID,72.1997,VALID,111.122,VALID,29.6283,VALID,42,VALID,0.9,
2010-09-26, 00:39:04,VALID,1002.56,VALID,0,VALID,72.3065,VALID,98.9539,VALID,29.6455,VALID,360,VALID,0.732422,
2010-09-26, 00:40:04,VALID,1002.59,VALID,0,VALID,72.0548,VALID,77.8357,VALID,29.6868,VALID,33,VALID,1.42148,
2010-09-26, 00:41:04,VALID,1002.56,VALID,0,VALID,71.0935,VALID,59.7344,VALID,29.548,VALID,29,VALID,2.04805,
2010-09-26, 00:42:04,VALID,1002.61,VALID,0,VALID,71.8869,VALID,60.1366,VALID,29.4918,VALID,40,VALID,0.950781,
2010-09-26, 00:43:04,VALID,1002.62,VALID,0,VALID,72.3981,VALID,68.5839,VALID,29.392,VALID,31,VALID,1.36367,
2010-09-26, 00:44:04,VALID,1002.66,VALID,0,VALID,72.2684,VALID,73.9138,VALID,29.314,VALID,30,VALID,2.05078,
2010-09-26, 00:45:04,VALID,1002.65,VALID,0,VALID,73.0923,VALID,75.4222,VALID,29.2773,VALID,58,VALID,1.38555,
2010-09-26, 00:46:04,VALID,1002.7,VALID,0,VALID,73.6034,VALID,79.7464,VALID,29.1971,VALID,51,VALID,0.661328,
2010-09-26, 00:47:04,VALID,1002.69,VALID,0,VALID,73.2983,VALID,69.3884,VALID,29.2188,VALID,55,VALID,0.65625,
2010-09-26, 00:48:04,VALID,1002.69,VALID,0,VALID,73.3441,VALID,58.2259,VALID,29.1993,VALID,20,VALID,1.24297,
2010-09-26, 00:49:04,VALID,1002.65,VALID,0,VALID,72.7566,VALID,58.9299,VALID,29.1581,VALID,34,VALID,2.2707,
2010-09-26, 00:50:04,VALID,1002.69,VALID,0,VALID,74.0307,VALID,61.0417,VALID,29.0801,VALID,8,VALID,1.93945,
2010-09-26, 00:51:04,VALID,1002.7,VALID,0,VALID,74.3663,VALID,57.7231,VALID,29.0216,VALID,28,VALID,1.48867,
2010-09-26, 00:52:04,VALID,1002.71,VALID,0,VALID,73.3593,VALID,53.1978,VALID,28.9826,VALID,29,VALID,2.01289,
2010-09-26, 00:53:04,VALID,1002.75,VALID,0,VALID,73.6721,VALID,51.4882,VALID,28.9436,VALID,354,VALID,1.00469,
2010-09-26, 00:54:04,VALID,1002.75,VALID,0,VALID,73.7636,VALID,51.4882,VALID,28.9241,VALID,29,VALID,1.00078,
2010-09-26, 00:55:04,VALID,1002.77,VALID,0,VALID,74.3129,VALID,45.7561,VALID,28.8851,VALID,15,VALID,1.19023,
2010-09-26, 00:56:04,VALID,1002.76,VALID,0,VALID,74.0688,VALID,40.2252,VALID,28.8461,VALID,6,VALID,1.46563,
2010-09-26, 00:57:04,VALID,1002.8,VALID,0,VALID,75.3428,VALID,40.3257,VALID,28.8267,VALID,21,VALID,1.02695,
2010-09-26, 00:58:04,VALID,1002.8,VALID,0,VALID,74.229,VALID,41.8342,VALID,28.766,VALID,53,VALID,0.763281,
2010-09-26, 00:59:04,VALID,1002.82,VALID,0,VALID,74.6791,VALID,40.5269,VALID,28.7487,VALID,30,VALID,1.21563,
2010-09-26, 01:00:04,VALID,1002.78,VALID,0,VALID,75.236,VALID,40.2252,VALID,28.7097,VALID,11,VALID,1.31211,
2010-09-26, 01:01:04,VALID,1002.77,VALID,0,VALID,74.5494,VALID,37.9122,VALID,28.6729,VALID,349,VALID,2.83594,
2010-09-26, 01:02:04,VALID,1002.77,VALID,0,VALID,75.7395,VALID,35.901,VALID,28.6339,VALID,33,VALID,0.660937,
2010-09-26, 01:03:04,VALID,1002.76,VALID,0,VALID,75.2208,VALID,36.5043,VALID,28.5927,VALID,28,VALID,1.93594,
2010-09-26, 01:04:04,VALID,1002.72,VALID,0,VALID,75.2284,VALID,34.9959,VALID,28.5559,VALID,76,VALID,0.345703,
2010-09-26, 01:05:04,VALID,1002.74,VALID,0,VALID,75.7395,VALID,34.0908,VALID,28.5559,VALID,24,VALID,1.02266,
2010-09-26, 01:06:04,VALID,1002.74,VALID,0,VALID,76.0981,VALID,32.0796,VALID,28.4953,VALID,40,VALID,1.19805,
2010-09-26, 01:07:04,VALID,1002.77,VALID,0,VALID,76.0599,VALID,29.3644,VALID,28.4758,VALID,32,VALID,1.88242,
2010-09-26, 01:08:04,VALID,1002.72,VALID,0,VALID,75.7166,VALID,27.8559,VALID,28.4389,VALID,7,VALID,1.55,
2010-09-26, 01:09:04,VALID,1002.74,VALID,0,VALID,76.4032,VALID,25.9452,VALID,28.3978,VALID,68,VALID,0.632813,
2010-09-26, 01:10:04,VALID,1002.75,VALID,0,VALID,77.3416,VALID,24.6379,VALID,28.4,VALID,11,VALID,0.625,
2010-09-26, 01:11:04,VALID,1002.77,VALID,0,VALID,76.2735,VALID,23.934,VALID,28.3198,VALID,2,VALID,1.2707,
2010-09-26, 01:12:04,VALID,1002.81,VALID,0,VALID,76.9067,VALID,23.23,VALID,28.3198,VALID,13,VALID,1.93164,
2010-09-26, 01:13:04,VALID,1002.81,VALID,0,VALID,76.7542,VALID,21.8222,VALID,28.3025,VALID,18,VALID,1.33008,
2010-09-26, 01:14:04,VALID,1002.82,VALID,0,VALID,77.2653,VALID,20.716,VALID,28.2809,VALID,33,VALID,0.507031,
2010-09-26, 01:15:04,VALID,1002.8,VALID,0,VALID,76.9678,VALID,19.5092,VALID,28.2419,VALID,35,VALID,1.15898,
2010-09-26, 01:16:04,VALID,1002.83,VALID,0,VALID,77.4408,VALID,18.5036,VALID,28.2245,VALID,60,VALID,0.727734,
2010-09-26, 01:17:04,VALID,1002.82,VALID,0,VALID,77.807,VALID,17.5985,VALID,28.1834,VALID,9,VALID,0.810547,
2010-09-26, 01:18:04,VALID,1002.88,VALID,0,VALID,77.8909,VALID,16.6934,VALID,28.1444,VALID,14,VALID,0.694141,
2010-09-26, 01:19:04,VALID,1002.89,VALID,0,VALID,77.7307,VALID,15.6878,VALID,28.1249,VALID,28,VALID,1.04727,
2010-09-26, 01:20:04,VALID,1002.9,VALID,0,VALID,78.1121,VALID,14.6822,VALID,28.1054,VALID,18,VALID,1.25117,
2010-09-26, 01:21:04,VALID,1002.9,VALID,0,VALID,78.2265,VALID,13.6766,VALID,28.0859,VALID,360,VALID,2.04336,
2010-09-26, 01:22:04,VALID,1002.93,VALID,0,VALID,78.2342,VALID,12.6709,VALID,28.0665,VALID,358,VALID,1.17031,
2010-09-26, 01:23:04,VALID,1002.98,VALID,0,VALID,78.6843,VALID,11.4642,VALID,28.0275,VALID,43,VALID,0.947266,
2010-09-26, 01:24:04,VALID,1002.99,VALID,0,VALID,78.547,VALID,9.85517,VALID,28.008,VALID,356,VALID,0.479688,
2010-09-26, 01:25:04,VALID,1002.98,VALID,0,VALID,78.5164,VALID,8.1456,VALID,27.9885,VALID,87,VALID,1.29258,
2010-09-26, 01:26:04,VALID,1003.04,VALID,0,VALID,78.5927,VALID,6.63715,VALID,27.969,VALID,76,VALID,1.71445,
2010-09-26, 01:27:04,VALID,1003.07,VALID,0,VALID,78.669,VALID,5.53096,VALID,27.93,VALID,37,VALID,0.784766,
2010-09-26, 01:28:04,VALID,1003.09,VALID,0,VALID,78.4936,VALID,4.52533,VALID,27.9084,VALID,47,VALID,0.961719,
2010-09-26, 01:29:04,VALID,1003.13,VALID,0,VALID,78.9513,VALID,4.02252,VALID,27.93,VALID,10,VALID,1.06523,
2010-09-26, 01:30:04,VALID,1003.16,VALID,0,VALID,78.4554,VALID,3.5197,VALID,27.8911,VALID,36,VALID,1.68125,
2010-09-26, 01:31:04,VALID,1003.18,VALID,0,VALID,78.5927,VALID,2.81576,VALID,27.9105,VALID,45,VALID,1.36484,
2010-09-26, 01:32:04,VALID,1003.16,VALID,0,VALID,78.1579,VALID,2.21238,VALID,27.8911,VALID,24,VALID,1.74219,
2010-09-26, 01:33:04,VALID,1003.15,VALID,0,VALID,78.6461,VALID,2.11182,VALID,27.8694,VALID,44,VALID,0.791406,
2010-09-26, 01:34:04,VALID,1003.17,VALID,0,VALID,78.3562,VALID,2.01126,VALID,27.85,VALID,23,VALID,1.48008,
2010-09-26, 01:35:04,VALID,1003.14,VALID,0,VALID,78.8369,VALID,1.9107,VALID,27.85,VALID,29,VALID,1.06484,
2010-09-26, 01:36:04,VALID,1003.13,VALID,0,VALID,78.6156,VALID,1.30732,VALID,27.8131,VALID,350,VALID,1.25898,
2010-09-26, 01:37:04,VALID,1003.12,VALID,0,VALID,79.287,VALID,0.804504,VALID,27.7957,VALID,23,VALID,0.933203,
2010-09-26, 01:38:04,VALID,1003.13,VALID,0,VALID,79.1496,VALID,0.603378,VALID,27.7546,VALID,12,VALID,1.22578,
2010-09-26, 01:39:04,VALID,1003.14,VALID,0,VALID,78.73,VALID,0.402252,VALID,27.7351,VALID,12,VALID,1.90078,
2010-09-26, 01:40:04,VALID,1003.13,VALID,0,VALID,79.142,VALID,0.301689,VALID,27.7351,VALID,4,VALID,1.18359,
2010-09-26, 01:41:04,VALID,1003.12,VALID,0,VALID,79.1115,VALID,0.301689,VALID,27.7178,VALID,34,VALID,1.06875,
2010-09-26, 01:42:04,VALID,1003.15,VALID,0,VALID,79.5692,VALID,0.201126,VALID,27.6767,VALID,6,VALID,1.70898,
2010-09-26, 01:43:04,VALID,1003.18,VALID,0,VALID,79.6455,VALID,0.100563,VALID,27.6572,VALID,22,VALID,1.98672,
2010-09-26, 01:44:04,VALID,1003.19,VALID,0,VALID,79.2488,VALID,0.100563,VALID,27.6572,VALID,18,VALID,2.84922,
2010-09-26, 01:45:04,VALID,1003.16,VALID,0,VALID,79.4929,VALID,0.100563,VALID,27.6572,VALID,19,VALID,0.939062,
2010-09-26, 01:46:04,VALID,1003.14,VALID,0,VALID,79.2488,VALID,0.100563,VALID,27.6377,VALID,1,VALID,2.15586,
2010-09-26, 01:47:04,VALID,1003.18,VALID,0,VALID,79.3709,VALID,0,VALID,27.6593,VALID,14,VALID,1.70781,
2010-09-26, 01:48:04,VALID,1003.21,VALID,0,VALID,79.4777,VALID,0.100563,VALID,27.6182,VALID,22,VALID,2.05859,
2010-09-26, 01:49:04,VALID,1003.21,VALID,0,VALID,79.5006,VALID,0,VALID,27.6182,VALID,27,VALID,1.01875,
2010-09-26, 01:50:04,VALID,1003.2,VALID,0,VALID,79.4777,VALID,0.100563,VALID,27.5987,VALID,22,VALID,1.81406,
2010-09-26, 01:51:04,VALID,1003.23,VALID,0,VALID,79.3861,VALID,0.100563,VALID,27.5772,VALID,21,VALID,2.20156,
2010-09-26, 01:52:04,VALID,1003.24,VALID,0,VALID,79.615,VALID,0.100563,VALID,27.5987,VALID,6,VALID,2.19922,
2010-09-26, 01:53:04,VALID,1003.22,VALID,0,VALID,79.4929,VALID,0,VALID,27.5987,VALID,47,VALID,1.76719,
2010-09-26, 01:54:04,VALID,1003.24,VALID,0,VALID,79.6989,VALID,0,VALID,27.5792,VALID,20,VALID,1.39688,
2010-09-26, 01:55:04,VALID,1003.27,VALID,0,VALID,79.7523,VALID,0,VALID,27.5598,VALID,29,VALID,2.23398,
2010-09-26, 01:56:04,VALID,1003.29,VALID,0,VALID,79.6684,VALID,0,VALID,27.5792,VALID,15,VALID,2.52148,
2010-09-26, 01:57:04,VALID,1003.35,VALID,0,VALID,80.0651,VALID,0,VALID,27.5598,VALID,29,VALID,1.71875,
2010-09-26, 01:58:04,VALID,1003.35,VALID,0,VALID,80.1566,VALID,0,VALID,27.5403,VALID,2,VALID,0.885156,
2010-09-26, 01:59:04,VALID,1003.39,VALID,0,VALID,80.2406,VALID,0,VALID,27.5208,VALID,28,VALID,1.92031,
2010-09-26, 02:00:04,VALID,1003.43,VALID,0,VALID,80.149,VALID,0,VALID,27.5187,VALID,360,VALID,1.89492,
2010-09-26, 02:01:04,VALID,1003.47,VALID,0,VALID,80.2787,VALID,0,VALID,27.5187,VALID,21,VALID,1.85938,
2010-09-26, 02:02:04,VALID,1003.48,VALID,0,VALID,80.2024,VALID,0,VALID,27.5403,VALID,19,VALID,2.88672,
2010-09-26, 02:03:04,VALID,1003.49,VALID,0,VALID,80.2635,VALID,0,VALID,27.5403,VALID,7,VALID,1.91523,
2010-09-26, 02:04:04,VALID,1003.49,VALID,0,VALID,80.4084,VALID,0.100563,VALID,27.5598,VALID,23,VALID,1.07109,
2010-09-26, 02:05:04,VALID,1003.47,VALID,0,VALID,80.7441,VALID,0.100563,VALID,27.4797,VALID,28,VALID,0.948047,
2010-09-26, 02:06:04,VALID,1003.52,VALID,0,VALID,81.1637,VALID,0.100563,VALID,27.4797,VALID,36,VALID,0.612891,
2010-09-26, 02:07:04,VALID,1003.52,VALID,0,VALID,81.0416,VALID,0,VALID,27.4428,VALID,58,VALID,0.743359,
2010-09-26, 02:08:04,VALID,1003.5,VALID,0,VALID,81.2628,VALID,0,VALID,27.4233,VALID,34,VALID,1.28398,
2010-09-26, 02:09:04,VALID,1003.48,VALID,0,VALID,81.0569,VALID,0,VALID,27.4233,VALID,9,VALID,2.55156,
2010-09-26, 02:10:04,VALID,1003.51,VALID,0,VALID,81.0263,VALID,0,VALID,27.4408,VALID,11,VALID,2.66641,
2010-09-26, 02:11:04,VALID,1003.54,VALID,0,VALID,81.1484,VALID,0,VALID,27.4623,VALID,360,VALID,1.31953,
2010-09-26, 02:12:04,VALID,1003.58,VALID,0,VALID,81.5222,VALID,0,VALID,27.4233,VALID,27,VALID,0.729297,
2010-09-26, 02:13:04,VALID,1003.64,VALID,0,VALID,81.7663,VALID,0,VALID,27.3844,VALID,49,VALID,0.935156,
2010-09-26, 02:14:04,VALID,1003.69,VALID,0,VALID,81.8808,VALID,0,VALID,27.3649,VALID,29,VALID,1.41875,
2010-09-26, 02:15:04,VALID,1003.65,VALID,0,VALID,81.8197,VALID,0,VALID,27.3844,VALID,53,VALID,2.12891,
2010-09-26, 02:16:04,VALID,1003.7,VALID,0,VALID,81.8808,VALID,0,VALID,27.3844,VALID,16,VALID,1.70352,
2010-09-26, 02:17:04,VALID,1003.64,VALID,0,VALID,81.7282,VALID,0,VALID,27.4039,VALID,90,VALID,2.18242,
2010-09-26, 02:18:04,VALID,1003.69,VALID,0,VALID,81.7663,VALID,0,VALID,27.3823,VALID,8,VALID,0.848437,
2010-09-26, 02:19:04,VALID,1003.72,VALID,0,VALID,82.1096,VALID,0,VALID,27.4039,VALID,42,VALID,1.66836,
2010-09-26, 02:20:04,VALID,1003.69,VALID,0,VALID,82.2698,VALID,0,VALID,27.3844,VALID,50,VALID,1.04922,
2010-09-26, 02:21:04,VALID,1003.7,VALID,0,VALID,82.0944,VALID,0,VALID,27.3823,VALID,19,VALID,1.59609,
2010-09-26, 02:22:04,VALID,1003.72,VALID,0,VALID,82.0868,VALID,0,VALID,27.4233,VALID,64,VALID,1.36641,
2010-09-26, 02:23:04,VALID,1003.79,VALID,0,VALID,82.3309,VALID,0,VALID,27.4213,VALID,29,VALID,0.754687,
2010-09-26, 02:24:04,VALID,1003.77,VALID,0,VALID,82.2546,VALID,0,VALID,27.4233,VALID,23,VALID,0.980469,
2010-09-26, 02:25:04,VALID,1003.78,VALID,0,VALID,82.1249,VALID,0,VALID,27.3844,VALID,16,VALID,2.04297,
2010-09-26, 02:26:04,VALID,1003.82,VALID,0,VALID,82.3919,VALID,0,VALID,27.3844,VALID,63,VALID,1.26875,
2010-09-26, 02:27:04,VALID,1003.88,VALID,0,VALID,82.2622,VALID,0,VALID,27.4039,VALID,11,VALID,1.75391,
2010-09-26, 02:28:04,VALID,1003.87,VALID,0,VALID,82.3156,VALID,0,VALID,27.4039,VALID,57,VALID,0.642187,
2010-09-26, 02:29:04,VALID,1003.91,VALID,0,VALID,82.3232,VALID,0,VALID,27.3823,VALID,6,VALID,1.85039,
2010-09-26, 02:30:04,VALID,1003.87,VALID,0,VALID,82.4835,VALID,0,VALID,27.3823,VALID,17,VALID,2.63242,
2010-09-26, 02:31:04,VALID,1003.92,VALID,0,VALID,82.6589,VALID,0,VALID,27.3823,VALID,14,VALID,1.21953,
2010-09-26, 02:32:04,VALID,1003.92,VALID,0,VALID,82.247,VALID,0,VALID,27.3823,VALID,11,VALID,1.28711,
2010-09-26, 02:33:04,VALID,1003.95,VALID,0,VALID,82.2927,VALID,0,VALID,27.3823,VALID,5,VALID,1.475,
2010-09-26, 02:34:04,VALID,1003.96,VALID,0,VALID,82.5369,VALID,0,VALID,27.3649,VALID,44,VALID,0.758594,
2010-09-26, 02:35:04,VALID,1003.98,VALID,0,VALID,82.6513,VALID,0,VALID,27.3649,VALID,62,VALID,1.06953,
2010-09-26, 02:36:04,VALID,1003.98,VALID,0,VALID,82.842,VALID,0,VALID,27.3044,VALID,47,VALID,0.733203,
2010-09-26, 02:37:04,VALID,1004.03,VALID,0,VALID,83.048,VALID,0,VALID,27.3064,VALID,18,VALID,1.34922,
2010-09-26, 02:38:04,VALID,1004.04,VALID,0,VALID,83.048,VALID,0,VALID,27.2869,VALID,30,VALID,1.20703,
2010-09-26, 02:39:04,VALID,1004.1,VALID,0,VALID,83.0556,VALID,0,VALID,27.2675,VALID,27,VALID,1.06875,
2010-09-26, 02:40:04,VALID,1004.16,VALID,0,VALID,83.1624,VALID,0,VALID,27.289,VALID,99,VALID,1.72852,
2010-09-26, 02:41:04,VALID,1004.17,VALID,0,VALID,83.2082,VALID,0,VALID,27.209,VALID,97,VALID,0.753906,
2010-09-26, 02:42:04,VALID,1004.19,VALID,0,VALID,83.5515,VALID,0,VALID,27.2111,VALID,62,VALID,0.566016,
2010-09-26, 02:43:04,VALID,1004.18,VALID,0,VALID,83.7727,VALID,0,VALID,27.1916,VALID,67,VALID,0.430859,
2010-09-26, 02:44:04,VALID,1004.21,VALID,0,VALID,84.1389,VALID,0,VALID,27.1311,VALID,71,VALID,0.353906,
2010-09-26, 02:45:04,VALID,1004.2,VALID,0,VALID,84.1313,VALID,0,VALID,27.0726,VALID,84,VALID,0.804688,
2010-09-26, 02:46:04,VALID,1004.21,VALID,0,VALID,84.4441,VALID,0,VALID,27.0336,VALID,117,VALID,0.558594,
2010-09-26, 02:47:04,VALID,1004.2,VALID,0,VALID,84.7645,VALID,0,VALID,26.9752,VALID,64,VALID,0.271094,
2010-09-26, 02:48:04,VALID,1004.22,VALID,0,VALID,84.7645,VALID,0,VALID,26.9362,VALID,113,VALID,0.801953,
2010-09-26, 02:49:04,VALID,1004.24,VALID,0,VALID,85.0696,VALID,0,VALID,26.8973,VALID,81,VALID,1.05117,
2010-09-26, 02:50:04,VALID,1004.26,VALID,0,VALID,85.2375,VALID,0,VALID,26.8778,VALID,105,VALID,1.15,
2010-09-26, 02:51:04,VALID,1004.28,VALID,0,VALID,85.3824,VALID,0,VALID,26.8193,VALID,90,VALID,0.567969,
2010-09-26, 02:52:04,VALID,1004.25,VALID,0,VALID,85.5198,VALID,0,VALID,26.7998,VALID,82,VALID,0.946094,
2010-09-26, 02:53:04,VALID,1004.23,VALID,0,VALID,85.7868,VALID,0,VALID,26.8019,VALID,112,VALID,1.12305,
2010-09-26, 02:54:04,VALID,1004.2,VALID,0,VALID,85.8478,VALID,0,VALID,26.7824,VALID,65,VALID,0.551562,
2010-09-26, 02:55:04,VALID,1004.22,VALID,0,VALID,86.0995,VALID,0,VALID,26.7414,VALID,57,VALID,0.366406,
2010-09-26, 02:56:04,VALID,1004.23,VALID,0,VALID,86.0919,VALID,0,VALID,26.7219,VALID,63,VALID,0.595312,
2010-09-26, 02:57:04,VALID,1004.26,VALID,0,VALID,86.2292,VALID,0,VALID,26.7024,VALID,65,VALID,0.4625,
2010-09-26, 02:58:04,VALID,1004.3,VALID,0,VALID,86.4428,VALID,0,VALID,26.683,VALID,77,VALID,0.347656,
2010-09-26, 02:59:04,VALID,1004.29,VALID,0,VALID,86.42,VALID,0,VALID,26.6635,VALID,122,VALID,0.648438,
2010-09-26, 03:00:04,VALID,1004.28,VALID,0,VALID,86.481,VALID,0,VALID,26.6655,VALID,77,VALID,0.486719,
2010-09-26, 03:01:04,VALID,1004.33,VALID,0,VALID,86.6107,VALID,0,VALID,26.644,VALID,112,VALID,0.611328,
2010-09-26, 03:02:04,VALID,1004.33,VALID,0,VALID,86.7022,VALID,0,VALID,26.644,VALID,69,VALID,0.529297,
2010-09-26, 03:03:04,VALID,1004.35,VALID,0,VALID,86.6336,VALID,0,VALID,26.646,VALID,69,VALID,0.374609,
2010-09-26, 03:04:04,VALID,1004.33,VALID,0,VALID,86.8853,VALID,0,VALID,26.6245,VALID,69,VALID,0.271094,
2010-09-26, 03:05:04,VALID,1004.37,VALID,0,VALID,86.8853,VALID,0,VALID,26.6245,VALID,58,VALID,0.522266,
2010-09-26, 03:06:04,VALID,1004.37,VALID,0,VALID,86.7709,VALID,0,VALID,26.605,VALID,5,VALID,0.271094,
2010-09-26, 03:07:04,VALID,1004.34,VALID,0,VALID,86.8472,VALID,0,VALID,26.605,VALID,5,VALID,0.318359,
2010-09-26, 03:08:04,VALID,1004.35,VALID,0,VALID,86.9235,VALID,0,VALID,26.6245,VALID,5,VALID,0.423047,
2010-09-26, 03:09:04,VALID,1004.35,VALID,0,VALID,86.8929,VALID,0,VALID,26.605,VALID,7,VALID,0.577734,
2010-09-26, 03:10:04,VALID,1004.36,VALID,0,VALID,87.0074,VALID,0,VALID,26.605,VALID,17,VALID,0.580078,
2010-09-26, 03:11:04,VALID,1004.37,VALID,0,VALID,87.1523,VALID,0,VALID,26.605,VALID,10,VALID,0.0839844,
2010-09-26, 03:12:04,VALID,1004.38,VALID,0,VALID,87.0989,VALID,0,VALID,26.5835,VALID,10,VALID,0,
2010-09-26, 03:13:04,VALID,1004.42,VALID,0,VALID,87.1371,VALID,0,VALID,26.5855,VALID,12,VALID,0.687891,
2010-09-26, 03:14:04,VALID,1004.44,VALID,0,VALID,87.2362,VALID,0,VALID,26.5855,VALID,13,VALID,0.169922,
2010-09-26, 03:15:04,VALID,1004.49,VALID,0,VALID,87.427,VALID,0,VALID,26.5466,VALID,6,VALID,0.614453,
2010-09-26, 03:16:04,VALID,1004.55,VALID,0,VALID,87.5261,VALID,0,VALID,26.5466,VALID,20,VALID,0.421484,
2010-09-26, 03:17:04,VALID,1004.54,VALID,0,VALID,87.488,VALID,0,VALID,26.5271,VALID,101,VALID,0.624609,
2010-09-26, 03:18:04,VALID,1004.6,VALID,0,VALID,87.6024,VALID,0,VALID,26.5271,VALID,101,VALID,0.687891,
2010-09-26, 03:19:04,VALID,1004.61,VALID,0,VALID,87.6558,VALID,0,VALID,26.4861,VALID,63,VALID,0.507813,
2010-09-26, 03:20:04,VALID,1004.62,VALID,0,VALID,87.5948,VALID,0,VALID,26.5056,VALID,51,VALID,0.391406,
2010-09-26, 03:21:04,VALID,1004.68,VALID,0,VALID,87.5643,VALID,0,VALID,26.5076,VALID,81,VALID,1.00156,
2010-09-26, 03:22:04,VALID,1004.68,VALID,0,VALID,87.6329,VALID,0,VALID,26.5056,VALID,17,VALID,0.686719,
2010-09-26, 03:23:04,VALID,1004.68,VALID,0,VALID,87.6635,VALID,0,VALID,26.5271,VALID,30,VALID,0.340625,
2010-09-26, 03:24:04,VALID,1004.75,VALID,0,VALID,87.694,VALID,0,VALID,26.5271,VALID,65,VALID,0.314844,
2010-09-26, 03:25:04,VALID,1004.72,VALID,0,VALID,87.7245,VALID,0,VALID,26.5056,VALID,65,VALID,0.205078,
2010-09-26, 03:26:04,VALID,1004.72,VALID,0,VALID,87.816,VALID,0,VALID,26.5076,VALID,75,VALID,0.593359,
2010-09-26, 03:27:04,VALID,1004.7,VALID,0,VALID,87.8771,VALID,0,VALID,26.5076,VALID,75,VALID,0.166797,
2010-09-26, 03:28:04,VALID,1004.75,VALID,0,VALID,88.0525,VALID,0,VALID,26.4881,VALID,66,VALID,0.239063,
2010-09-26, 03:29:04,VALID,1004.79,VALID,0,VALID,88.228,VALID,0,VALID,26.4881,VALID,96,VALID,0.730859,
2010-09-26, 03:30:04,VALID,1004.83,VALID,0,VALID,88.2814,VALID,0,VALID,26.4881,VALID,94,VALID,1.02031,
2010-09-26, 03:31:04,VALID,1004.84,VALID,0,VALID,88.1822,VALID,0,VALID,26.4881,VALID,93,VALID,0.583984,
2010-09-26, 03:32:04,VALID,1004.87,VALID,0,VALID,88.2738,VALID,0,VALID,26.4881,VALID,112,VALID,0.631641,
2010-09-26, 03:33:04,VALID,1004.85,VALID,0,VALID,88.1975,VALID,0,VALID,26.4667,VALID,103,VALID,0.304297,
2010-09-26, 03:34:04,VALID,1004.85,VALID,0,VALID,88.1899,VALID,0,VALID,26.4687,VALID,103,VALID,0.176563,
2010-09-26, 03:35:04,VALID,1004.89,VALID,0,VALID,88.1899,VALID,0,VALID,26.4687,VALID,103,VALID,0.245703,
2010-09-26, 03:36:04,VALID,1004.9,VALID,0,VALID,88.4492,VALID,0,VALID,26.4472,VALID,80,VALID,0.317578,
2010-09-26, 03:37:04,VALID,1004.87,VALID,0,VALID,88.4035,VALID,0,VALID,26.4492,VALID,5,VALID,0.463672,
2010-09-26, 03:38:04,VALID,1004.87,VALID,0,VALID,88.6171,VALID,0,VALID,26.4082,VALID,49,VALID,0.364844,
2010-09-26, 03:39:04,VALID,1004.85,VALID,0,VALID,88.495,VALID,0,VALID,26.4297,VALID,86,VALID,0.784375,
2010-09-26, 03:40:04,VALID,1004.87,VALID,0,VALID,88.8231,VALID,0,VALID,26.4297,VALID,77,VALID,0.496094,
2010-09-26, 03:41:04,VALID,1004.89,VALID,0,VALID,88.8307,VALID,0,VALID,26.4082,VALID,86,VALID,0.398828,